Wind_Speed
124 123 122 121 121 120 120 119 118 117 117 116 115 114 114 113 113 112 111 111 110 109 109 108 108 108 108 108 108 108 108 107 107 107 107 107 107 107 107 106 106 106 105 105 105 104 104 104 104 103 103 103 103 102 102 101 101 101 101 101 100 100 100 100 99 99 99 99 99 99 99 98 98 98 98 98 98 98 98 98 98 98 97 97 96 96
126 125 124 123 123 122 122 121 120 119 119 118 117 116 116 115 114 114 113 112 112 111 110 110 109 109 109 109 109 109 109 109 109 108 108 108 108 108 108 108 107 107 107 106 106 106 106 105 105 105 105 104 104 104 104 103 103 103 102 102 102 102 101 101 101 101 101 100 100 100 100 100 99 99 99 99 98 98 98 98 98 98 97 97 96 96
128 127 126 126 125 124 124 123 122 121 121 120 119 118 117 117 116 116 115 114 113 113 112 111 111 111 111 110 110 110 110 110 110 110 110 110 109 109 109 109 109 109 108 108 108 108 107 107 107 107 106 106 106 105 105 105 105 104 104 104 104 103 103 103 102 102 102 102 101 101 101 101 101 100 100 100 99 99 99 99 98 98 98 97 97 96
130 129 129 128 127 126 126 125 124 123 123 122 121 120 119 119 118 117 116 116 115 114 113 113 112 112 112 112 112 111 111 111 111 111 111 110 110 110 110 110 110 110 110 109 109 109 109 109 108 108 108 108 107 107 107 107 106 106 106 105 105 105 104 104 104 104 103 103 103 102 102 102 102 101 101 101 100 100 100 100 99 99 99 98 98 97
132 131 131 130 129 129 128 127 126 125 124 124 123 122 121 121 120 119 118 117 116 116 115 114 114 114 113 113 113 113 113 112 112 112 112 111 111 111 111 111 111 111 111 111 111 111 110 110 110 110 110 109 109 109 108 108 108 108 107 107 107 106 106 106 105 105 105 104 104 103 103 103 103 102 102 102 101 101 101 100 100 100 100 99 99 98
134 134 133 132 131 131 130 129 128 128 127 126 125 124 123 123 122 121 120 119 118 117 117 116 115 115 115 114 114 114 114 113 113 113 113 113 112 112 112 112 112 112 112 112 112 112 112 112 111 111 111 111 111 110 110 110 109 109 109 108 108 108 107 107 107 106 106 105 105 104 104 104 104 103 103 103 102 102 102 101 101 101 101 100 100 100
136 136 135 134 134 133 132 131 131 130 129 128 128 127 126 125 124 123 122 121 120 119 118 117 117 117 116 116 116 115 115 114 114 114 114 113 113 113 113 113 113 113 113 113 113 113 113 113 113 112 112 112 112 112 111 111 111 110 110 110 110 109 109 109 108 108 107 107 106 106 105 105 104 104 104 104 103 103 103 102 102 102 102 102 101 101
138 138 137 136 136 135 134 134 133 132 131 131 130 129 128 127 126 125 124 123 122 121 120 119 119 118 118 117 117 117 116 116 115 115 115 114 114 114 114 114 114 114 114 114 114 114 114 114 113 113 113 113 113 113 112 112 112 112 112 111 111 111 110 110 110 109 109 108 107 107 106 106 105 105 105 105 104 104 104 104 103 103 103 103 102 102
139 139 138 138 138 137 136 136 135 134 134 133 132 131 131 130 129 128 127 126 124 124 122 122 121 120 120 119 118 118 117 117 117 116 116 116 115 115 115 115 115 115 115 115 115 115 114 114 114 114 114 114 114 114 114 113 113 113 113 112 112 112 112 111 111 111 110 109 109 108 108 107 107 106 106 106 106 105 105 105 105 104 104 104 104 103
140 140 140 139 139 138 138 138 137 137 136 135 134 134 133 132 131 130 129 129 127 126 125 124 123 123 122 121 120 119 119 118 118 118 117 117 117 117 117 116 116 116 116 116 116 116 115 115 115 115 115 115 115 115 114 114 114 114 114 114 113 113 113 113 113 112 111 111 110 110 109 109 108 108 108 107 107 107 107 106 106 106 106 105 105 105
140 140 140 140 140 139 139 139 139 138 138 137 136 136 135 134 134 133 132 131 130 129 128 127 126 125 125 123 122 121 121 120 120 119 119 119 118 118 118 118 118 118 118 117 117 117 117 116 116 116 116 116 116 116 116 115 115 115 115 115 115 114 114 114 114 113 113 112 112 111 111 110 110 110 109 109 108 108 108 108 107 107 107 107 106 106
139 139 140 140 140 140 140 140 140 139 139 138 138 137 137 137 136 135 134 134 133 132 131 130 129 128 127 126 125 124 123 123 122 121 121 120 120 120 120 119 119 119 119 119 119 118 118 118 118 117 117 117 117 117 117 117 117 116 116 116 116 116 115 115 115 115 114 114 113 113 112 112 112 111 111 110 110 110 110 109 109 109 108 108 108 108
137 138 139 139 140 140 140 140 140 140 139 139 139 139 138 138 137 136 136 135 134 134 133 132 131 131 130 129 128 127 126 125 124 124 123 122 122 121 121 121 121 121 121 120 120 120 120 119 119 119 119 119 119 119 119 119 118 118 118 118 117 117 117 117 116 116 116 115 115 115 114 114 113 113 113 112 112 112 111 111 111 110 110 110 110 109
135 136 138 139 139 139 140 140 140 140 140 140 140 139 139 138 137 137 137 136 136 135 134 134 133 133 132 131 130 129 128 127 127 126 125 124 124 123 123 123 123 123 122 122 122 121 121 121 121 121 121 121 121 121 121 121 121 120 120 120 120 119 119 119 118 118 118 117 117 117 116 116 115 115 114 114 114 113 113 113 112 112 112 112 111 111
132 134 135 137 138 139 139 139 140 140 140 140 139 139 139 138 137 137 137 137 136 136 135 134 134 134 133 132 131 130 129 129 128 128 127 127 126 125 125 125 125 125 124 124 123 123 123 122 122 122 123 123 123 123 123 123 123 123 122 122 122 121 121 121 121 120 120 119 119 119 118 118 117 117 116 116 116 115 115 115 114 114 114 113 113 113
127 130 132 135 136 137 138 139 139 139 140 139 139 139 138 138 138 138 137 137 137 136 135 135 135 135 134 133 132 131 130 130 130 129 129 128 127 127 126 127 127 126 126 125 125 124 124 124 124 124 124 124 124 124 125 124 125 124 124 124 124 124 123 123 123 123 122 122 121 121 120 120 119 119 118 118 118 117 117 116 116 116 115 115 115 115
121 125 128 131 133 135 136 137 138 138 139 138 138 138 138 138 138 138 137 137 137 136 136 136 135 135 135 134 132 131 130 130 130 130 130 129 129 128 128 128 128 128 127 127 126 126 126 125 125 125 125 126 126 126 126 126 126 126 126 126 126 126 125 125 125 125 124 124 123 123 122 122 122 121 121 120 120 119 119 118 118 118 117 117 117 116
116 120 123 126 129 131 132 134 135 136 137 137 138 138 138 138 138 138 138 137 137 137 137 136 136 136 135 134 133 131 130 130 131 130 130 130 130 129 129 129 129 129 128 128 128 127 127 127 127 127 127 127 127 127 127 127 127 127 127 127 127 127 127 127 127 127 126 126 125 125 125 124 124 123 123 122 122 121 121 120 120 119 119 119 118 118
111 114 117 121 123 125 127 129 131 133 134 135 136 137 137 137 138 138 138 138 137 137 137 137 136 136 135 135 133 132 131 131 131 131 131 131 131 130 129 129 129 129 129 129 129 128 127 127 127 128 128 128 128 128 128 128 128 128 128 128 128 128 128 128 128 128 127 127 127 127 126 126 126 125 125 124 124 123 123 122 122 121 121 120 120 119
106 109 112 114 117 119 122 124 126 128 130 131 133 134 135 136 137 137 137 137 137 137 137 137 137 136 136 135 134 133 132 132 132 132 132 132 131 131 130 130 130 130 130 130 129 128 128 128 128 128 128 129 128 128 128 128 128 128 128 128 128 129 129 128 128 128 128 128 128 128 127 127 127 127 126 126 125 125 124 124 123 123 122 121 121 120
101 103 106 108 111 113 116 118 120 122 124 126 128 130 132 133 134 135 136 136 136 136 136 136 136 136 135 135 135 134 133 133 133 133 133 133 132 132 131 131 131 131 131 131 130 129 129 129 129 129 129 129 129 129 128 128 128 128 129 129 129 129 129 128 128 128 128 128 128 128 128 128 128 127 127 127 126 126 125 125 124 123 123 122 122 121
95 97 100 102 104 107 110 112 114 116 118 121 123 126 127 129 130 132 133 133 134 135 135 135 135 135 135 135 135 135 134 134 134 134 133 133 133 133 132 132 132 132 132 131 131 130 129 129 130 130 130 129 129 129 129 129 129 129 129 129 129 129 128 128 128 128 128 128 128 128 128 128 128 128 127 127 127 126 125 125 124 124 123 122 122 121
90 92 94 96 99 101 103 106 108 110 113 115 118 120 122 124 126 128 129 130 131 131 132 133 133 133 134 134 135 135 134 135 134 134 133 134 134 134 133 133 133 133 133 132 131 130 130 130 130 130 130 129 129 129 129 129 129 129 129 129 129 128 128 128 128 128 128 128 128 128 128 127 127 127 127 127 126 126 125 124 124 123 122 122 122 121
86 88 90 92 94 96 98 100 103 105 107 110 113 115 117 119 121 123 124 125 126 127 128 129 130 131 132 133 133 134 134 134 134 133 134 134 134 134 134 134 134 134 134 132 131 130 130 130 130 130 130 129 129 129 129 129 129 129 129 128 128 128 128 127 127 127 127 127 127 127 127 127 127 126 126 126 125 125 124 123 123 122 122 121 121 120
83 85 86 88 90 91 93 96 98 100 102 104 107 109 111 113 115 117 119 120 122 123 124 126 127 129 130 130 131 132 132 132 132 133 133 134 134 134 134 134 134 134 134 132 130 129 129 129 129 129 129 129 129 129 128 128 128 128 128 127 127 127 126 126 126 126 126 126 126 125 125 126 125 125 125 124 124 123 122 122 121 121 120 120 119 119
80 81 83 85 86 88 89 91 93 95 97 99 101 103 106 108 110 111 113 115 117 118 120 122 123 125 126 126 128 129 130 130 130 131 132 132 133 133 133 133 133 133 133 131 129 128 128 128 128 128 128 128 128 127 127 127 126 126 126 125 125 125 124 124 124 124 124 124 124 124 124 124 124 123 123 122 121 121 120 120 119 119 118 118 118 118
78 79 81 82 83 84 86 87 89 91 93 94 96 98 100 102 104 106 108 110 111 112 114 116 118 119 120 122 124 125 125 126 127 128 129 130 131 131 131 131 132 132 131 129 128 127 127 127 127 127 126 126 126 126 125 125 124 124 123 123 122 122 122 122 122 122 122 122 122 122 122 122 122 121 121 120 119 118 118 117 117 117 116 116 116 116
77 78 79 80 81 82 83 84 86 87 89 90 92 93 95 97 99 100 102 104 105 106 108 110 112 114 115 117 119 120 121 123 124 125 125 127 128 129 129 129 129 129 129 127 126 125 124 124 124 124 124 123 123 123 123 122 122 121 121 120 120 120 119 119 119 119 119 119 119 120 120 120 120 119 118 117 116 115 115 115 114 114 114 114 114 114
76 76 77 78 79 79 80 81 83 84 85 87 88 89 91 92 94 96 97 98 99 101 103 105 107 109 110 112 114 115 117 119 120 121 122 123 125 126 125 125 126 126 125 125 123 122 122 122 121 121 120 120 120 120 120 119 118 118 117 117 117 117 117 117 117 117 117 117 117 117 118 118 117 116 115 114 113 112 112 112 112 112 112 112 112 112
74 75 75 76 76 77 78 79 80 81 82 84 85 86 87 89 90 91 93 94 95 97 99 100 102 104 106 108 110 111 113 115 116 117 118 120 121 122 121 121 122 122 121 121 120 120 119 118 117 116 116 116 116 116 116 115 114 114 114 114 114 114 114 114 114 114 114 114 114 115 115 114 113 112 111 110 109 109 109 109 109 109 109 109 109 109
73 73 74 74 75 75 76 77 78 79 80 81 82 83 84 86 87 88 89 91 92 94 95 97 99 100 102 104 106 108 109 111 112 113 114 116 117 117 116 117 117 117 116 116 116 116 115 113 112 112 112 112 112 112 111 111 110 110 110 110 111 111 111 111 111 111 111 111 112 112 111 111 109 107 106 106 106 106 106 106 106 106 106 106 106 106
71 71 71 72 72 73 74 75 76 76 78 79 80 81 82 83 84 85 87 88 89 91 92 94 95 97 99 100 102 104 105 106 107 108 109 111 111 111 111 112 112 112 111 111 111 111 111 109 108 108 108 108 108 107 107 106 106 106 106 107 108 108 108 108 108 107 108 108 108 108 107 106 104 103 102 102 102 103 103 103 103 103 103 103 103 102
68 69 69 70 70 71 72 73 74 75 76 77 78 79 80 81 82 83 85 86 87 88 90 91 93 94 95 97 98 99 100 102 103 104 104 106 106 107 107 107 108 107 107 107 106 106 106 105 104 104 104 104 104 103 102 102 102 102 103 104 105 105 105 105 104 104 105 105 105 104 102 100 99 99 99 99 100 100 100 100 100 100 100 99 99 99
67 67 68 68 69 70 70 71 72 73 74 76 77 78 79 80 81 82 83 84 85 86 88 89 90 91 92 93 94 96 97 98 99 99 100 101 102 103 103 103 103 103 103 102 102 102 101 101 100 100 100 100 99 98 98 98 99 100 100 101 102 102 102 102 101 101 101 101 100 99 97 96 95 95 96 97 97 98 98 98 97 97 96 96 96 96
65 66 66 67 68 68 69 70 71 73 74 75 76 77 77 78 79 80 81 82 83 84 85 87 87 88 90 90 92 93 94 95 96 96 97 98 99 99 99 99 99 99 98 98 97 97 97 96 96 96 96 96 95 95 94 95 95 96 97 98 98 99 99 98 98 98 98 97 96 95 93 93 93 93 94 95 95 95 95 95 94 94 93 93 93 93
65 65 66 66 67 68 69 70 71 72 73 74 75 76 76 77 78 79 80 81 82 83 84 85 85 86 88 89 90 91 92 93 93 94 94 95 95 95 95 95 94 93 93 93 93 92 93 93 93 93 93 93 92 92 91 92 92 93 94 95 95 95 95 95 95 95 94 93 92 91 90 90 91 91 92 92 93 93 92 92 92 91 91 90 90 90
64 65 65 66 67 67 69 69 70 71 72 73 74 75 75 76 77 78 79 80 80 81 82 83 84 85 86 87 88 89 89 90 90 90 91 90 90 90 89 89 88 88 88 89 89 89 90 90 90 90 89 89 89 88 88 89 89 90 91 91 92 92 92 92 92 91 91 90 89 88 88 88 89 89 90 90 90 90 90 90 89 88 88 88 87 87
64 65 65 66 66 67 68 69 70 71 71 72 73 74 74 75 76 77 78 79 79 80 81 82 83 84 85 85 86 86 86 86 86 85 85 85 84 84 84 84 84 84 85 86 86 87 87 87 87 87 86 86 85 85 85 86 86 87 87 88 88 88 88 88 88 88 87 86 86 86 86 86 87 87 87 88 88 88 88 87 87 86 86 85 85 85
64 65 65 66 66 67 68 69 69 70 71 71 72 73 74 74 75 76 77 78 79 79 80 81 81 82 82 82 82 82 81 81 81 80 80 80 80 80 81 81 82 82 83 83 83 84 84 84 83 83 82 82 82 82 82 83 83 84 84 84 84 85 85 85 84 84 84 83 83 83 84 84 85 85 85 86 86 86 85 85 84 84 83 83 83 83
64 65 65 65 66 67 67 68 69 69 70 70 71 72 73 73 74 75 76 77 77 78 78 79 79 79 79 78 78 78 77 77 77 77 77 77 77 78 78 79 79 80 80 80 80 80 80 80 79 79 79 78 79 79 79 80 80 80 80 80 81 81 81 81 81 81 81 81 81 81 81 82 82 83 83 83 83 83 83 82 82 81 81 81 80 80
64 64 65 65 66 66 67 67 68 68 69 70 70 71 72 73 73 74 75 75 76 76 76 76 76 76 75 75 75 74 74 74 74 74 75 75 75 76 76 76 76 77 77 76 76 76 76 76 76 75 75 75 76 76 76 76 76 77 77 77 77 77 77 77 77 77 78 78 78 78 79 79 80 80 81 81 81 81 80 80 79 79 78 78 78 78
64 64 65 65 65 66 66 67 67 68 68 69 70 70 71 72 72 73 73 74 74 74 74 74 73 73 73 72 72 72 72 72 72 72 72 73 73 73 73 73 73 73 73 73 73 73 73 72 72 72 72 73 73 73 73 73 73 73 73 74 74 74 74 74 74 74 74 75 75 76 76 77 78 78 78 78 78 78 77 77 76 76 76 76 76 76
64 64 64 65 65 65 66 66 67 67 68 68 69 70 70 71 71 71 71 72 72 72 71 71 71 71 70 70 70 70 70 70 70 70 70 70 70 70 71 71 71 70 70 70 70 70 70 70 70 70 70 70 70 70 70 70 70 70 70 70 70 70 70 70 71 71 72 72 73 74 74 75 75 75 75 75 75 75 75 74 74 74 74 74 74 74
63 63 64 64 65 65 65 66 66 67 67 68 69 69 69 69 69 69 70 70 69 69 69 69 69 68 68 68 68 68 68 68 68 68 68 68 68 68 68 68 68 68 68 68 68 68 67 67 67 67 67 68 68 68 68 68 67 67 67 67 67 67 67 68 68 69 69 70 71 71 72 72 72 72 72 72 72 72 72 72 72 72 72 72 72 72
62 63 63 64 64 65 65 66 66 66 67 67 68 68 68 68 68 68 67 67 67 67 67 67 67 67 67 67 66 66 66 66 66 66 66 66 66 66 66 66 66 66 66 66 66 66 66 65 65 65 66 65 65 65 65 65 65 65 65 65 65 65 65 65 66 66 67 68 68 69 69 70 70 70 70 70 70 69 69 69 69 70 70 70 70 70
62 63 63 63 64 64 65 65 65 66 66 66 67 67 67 67 66 66 66 65 65 65 65 65 65 65 65 65 65 64 64 64 64 64 64 64 64 64 64 64 64 64 64 64 64 64 64 64 64 64 63 63 63 63 63 63 63 62 62 62 63 63 63 63 64 65 65 66 66 67 67 67 67 67 67 67 67 67 68 68 68 68 68 68 68 69
62 62 63 63 64 64 64 65 65 65 66 66 66 66 66 65 65 64 64 64 64 64 64 64 64 64 64 64 63 63 63 63 62 63 63 63 63 63 63 63 63 63 63 63 62 62 62 62 62 62 62 62 62 61 61 61 61 61 61 61 61 61 62 62 63 63 64 64 64 65 65 65 65 65 66 66 66 66 66 66 66 67 67 67 67 67
62 62 63 63 63 64 64 64 65 65 65 65 65 65 64 64 64 63 63 63 63 63 63 63 63 63 63 62 62 62 61 61 61 61 61 61 61 61 61 61 61 61 61 61 61 61 61 61 60 60 60 60 60 60 59 59 59 59 60 60 60 60 60 61 62 62 62 63 63 63 63 63 64 64 64 64 65 65 65 65 65 66 66 66 66 66
61 62 62 62 63 63 64 64 64 65 65 65 64 64 64 63 63 62 62 62 62 62 62 62 62 62 62 61 61 61 60 60 60 60 60 60 60 60 60 60 60 60 60 60 60 59 59 59 59 59 59 59 58 58 58 58 58 58 58 59 59 59 60 60 61 61 61 61 62 62 62 62 63 63 63 63 64 64 64 64 64 65 65 65 65 66
61 61 62 62 63 63 63 64 64 64 64 64 64 63 63 62 62 62 61 61 62 62 62 62 61 61 61 61 60 60 60 59 59 59 59 59 59 59 59 58 58 58 58 58 58 58 58 58 58 58 58 57 57 57 57 57 57 57 58 58 58 59 59 60 60 60 60 61 61 61 61 62 62 62 62 63 63 64 64 64 64 64 64 64 65 65
60 61 61 62 62 62 63 63 63 63 63 63 63 62 62 61 61 61 61 61 61 61 61 61 61 61 60 60 60 59 59 59 58 58 58 58 58 58 58 58 57 57 57 57 57 57 57 57 57 57 57 57 57 57 57 57 57 57 57 58 58 58 59 59 59 60 60 60 60 60 61 61 62 62 62 63 63 63 63 64 64 64 64 64 64 65
Wind_Direction
246 246 246 246 246 246 246 246 246 245 245 245 244 244 244 244 244 244 243 243 243 243 242 242 242 242 242 242 242 242 242 242 243 243 243 243 244 244 244 245 245 245 245 246 246 246 246 247 247 247 247 248 248 248 249 249 249 250 250 250 250 251 251 251 251 251 252 252 252 252 252 252 252 252 253 253 253 253 254 254 254 255 255 255 256 256
247 247 247 247 247 247 246 246 246 246 246 245 245 245 244 244 244 244 244 244 243 243 243 243 243 242 242 242 243 243 243 243 243 243 244 244 244 245 245 245 245 246 246 246 246 246 247 247 247 247 247 248 248 248 248 249 249 249 250 250 250 251 251 251 251 252 252 252 252 252 253 253 253 253 253 253 253 254 254 254 255 255 255 256 256 256
247 247 247 247 247 247 247 247 247 247 246 246 246 246 245 245 245 244 244 244 244 244 243 243 243 243 243 243 243 243 243 243 244 244 244 244 245 245 245 245 246 246 246 246 246 247 247 247 247 247 248 248 248 248 248 249 249 249 249 250 250 250 251 251 251 251 252 252 252 252 253 253 253 253 253 253 254 254 254 254 255 255 255 256 256 256
247 247 248 248 248 248 248 248 248 247 247 247 247 247 246 246 246 245 245 245 244 244 244 244 244 244 244 244 244 244 244 244 244 244 244 245 245 245 246 246 246 246 246 247 247 247 247 247 247 248 248 248 248 248 248 249 249 249 249 250 250 250 250 251 251 251 252 252 252 252 252 253 253 253 253 253 254 254 254 254 255 255 255 256 256 256
246 246 247 247 248 248 248 248 248 248 248 248 248 248 247 247 247 246 246 245 245 245 245 244 244 244 244 244 244 244 244 244 244 245 245 245 245 245 246 246 246 246 247 247 247 247 247 247 248 248 248 248 248 248 249 249 249 249 249 250 250 250 250 251 251 251 251 252 252 252 252 253 253 253 253 254 254 254 254 255 255 255 255 256 256 256
245 245 246 246 247 247 248 248 248 248 248 249 249 248 248 248 248 247 247 246 246 246 245 245 245 245 245 245 245 245 245 245 245 245 245 245 246 246 246 246 246 247 247 247 247 247 248 248 248 248 248 248 248 249 249 249 249 249 249 250 250 250 250 251 251 251 251 252 252 252 252 253 253 253 253 254 254 254 254 255 255 255 255 256 256 256
244 244 245 245 246 246 247 247 248 248 248 249 249 249 249 249 249 248 248 248 247 247 246 246 246 245 245 245 245 245 245 245 245 245 246 246 246 246 246 246 247 247 247 247 247 248 248 248 248 248 248 248 249 249 249 249 249 249 250 250 250 250 250 251 251 251 251 251 252 252 252 252 253 253 253 254 254 254 254 255 255 255 256 256 256 256
243 243 244 244 244 245 246 246 247 247 248 248 249 249 249 249 249 249 249 249 248 248 248 247 247 247 246 246 246 246 246 246 246 246 246 246 246 246 247 247 247 247 247 248 248 248 248 248 248 249 249 249 249 249 249 249 249 249 250 250 250 250 250 251 251 251 251 251 252 252 252 252 253 253 253 253 254 254 254 255 255 255 256 256 256 257
241 242 242 243 243 244 245 245 246 246 247 247 248 248 249 249 249 249 249 249 249 249 249 249 248 248 247 247 247 246 246 246 246 246 246 246 247 247 247 247 247 247 247 248 248 248 248 249 249 249 249 249 249 249 250 250 250 250 250 250 250 250 250 251 251 251 251 251 252 252 252 252 252 253 253 253 254 254 254 254 255 255 255 256 256 256
240 241 241 242 243 243 244 244 245 245 246 246 247 247 248 248 249 249 249 249 250 250 249 249 249 249 249 248 248 248 247 247 247 247 247 247 247 247 247 247 247 248 248 248 248 248 248 249 249 249 249 249 250 250 250 250 250 250 250 250 250 250 250 251 251 251 251 251 252 252 252 252 252 253 253 253 253 254 254 254 254 255 255 255 256 256
239 240 240 241 242 242 243 243 244 244 245 245 246 246 247 247 248 248 248 249 249 249 249 250 250 250 250 249 249 249 249 248 248 248 248 248 248 248 248 248 248 248 248 248 248 248 249 249 249 249 250 250 250 250 250 250 250 250 250 250 251 251 251 251 251 251 251 251 252 252 252 252 252 252 253 253 253 253 254 254 254 255 255 255 256 256
238 239 239 240 241 241 242 243 243 244 244 245 245 246 246 246 247 247 247 248 248 249 249 249 249 249 250 250 250 250 249 249 249 249 249 248 248 248 248 248 248 248 248 248 249 249 249 249 249 250 250 250 250 250 250 250 251 251 251 251 251 251 251 251 251 251 251 252 252 252 252 252 252 252 253 253 253 253 254 254 254 254 255 255 255 256
237 238 239 239 240 240 241 242 242 243 243 244 244 245 245 246 246 246 247 247 248 248 248 249 249 249 249 249 250 250 250 250 250 250 249 249 249 249 249 249 249 249 249 249 249 249 249 250 250 250 250 250 250 250 250 251 251 251 251 251 251 251 251 251 251 251 252 252 252 252 252 252 252 252 253 253 253 253 254 254 254 255 255 255 255 256
237 238 238 239 239 240 240 241 241 242 243 243 244 244 245 245 246 246 246 247 247 247 248 248 248 249 249 249 249 249 249 250 250 250 250 250 250 250 250 250 250 250 250 250 250 250 250 250 250 250 250 250 250 251 251 251 251 251 251 251 251 251 251 251 251 252 252 252 252 252 252 252 252 253 253 253 253 253 254 254 254 255 255 255 256 256
238 238 238 239 239 239 240 240 241 241 242 242 243 244 244 245 245 246 246 247 247 247 248 248 248 248 248 249 249 249 249 249 250 250 250 250 250 250 250 250 250 250 250 250 250 250 250 250 250 250 250 250 251 251 251 251 251 251 251 251 251 251 251 251 252 252 252 252 252 252 252 252 252 253 253 253 253 254 254 254 255 255 255 255 256 256
238 238 239 239 239 239 240 240 240 241 241 242 243 243 244 244 245 245 246 246 247 247 247 248 248 248 248 248 248 249 249 249 249 250 250 250 250 250 250 250 250 250 250 250 250 250 250 250 250 250 251 251 251 251 251 251 251 251 251 251 251 251 252 252 252 252 252 252 252 252 252 252 253 253 253 253 253 254 254 254 255 255 255 256 256 256
239 239 239 239 239 239 240 240 240 241 241 242 242 243 243 244 244 245 245 246 246 247 247 247 248 248 248 248 248 248 248 249 249 249 249 249 249 249 249 250 250 250 250 250 250 250 250 250 250 250 251 251 251 251 251 251 251 251 251 251 251 251 252 252 252 252 252 252 252 252 253 253 253 253 253 253 254 254 254 254 255 255 255 256 256 256
241 240 240 240 240 240 240 240 240 241 241 241 242 242 243 243 244 244 245 245 246 246 246 247 247 248 248 248 248 248 248 249 249 249 249 249 249 249 249 249 249 250 250 250 250 250 250 250 250 250 250 250 251 251 251 251 251 251 251 251 252 252 252 252 252 252 252 252 252 253 253 253 253 253 253 254 254 254 254 255 255 255 256 256 256 256
241 241 241 241 241 241 241 241 241 241 241 241 242 242 242 243 243 244 244 245 245 245 246 246 247 247 248 248 248 248 248 248 249 249 249 249 249 249 249 249 249 249 249 249 249 249 249 250 250 250 250 250 250 251 251 251 251 251 251 251 252 252 252 252 252 252 252 253 253 253 253 253 253 253 254 254 254 254 254 255 255 255 256 256 256 256
241 241 241 241 241 241 241 241 241 241 241 241 242 242 242 243 243 243 244 244 244 245 245 246 246 247 247 248 248 248 248 248 248 249 249 249 249 249 249 249 249 249 249 249 249 249 249 249 249 250 250 250 250 250 250 251 251 251 251 251 252 252 252 252 252 252 252 253 253 253 253 253 253 253 254 254 254 254 254 255 255 255 256 256 256 256
240 240 240 240 240 241 241 241 241 241 241 241 241 242 242 242 243 243 243 244 244 244 245 245 246 246 247 247 247 248 248 248 248 248 249 249 249 249 249 249 249 249 249 249 249 249 249 249 249 249 249 250 250 250 250 250 251 251 251 251 251 252 252 252 252 252 252 253 253 253 253 253 253 253 254 254 254 254 254 255 255 255 255 256 256 256
240 240 239 239 240 240 240 240 240 240 240 241 241 242 242 242 242 242 243 243 243 244 244 244 245 245 246 246 247 247 247 248 248 248 248 249 249 249 249 249 249 249 249 249 249 249 249 249 249 249 249 249 249 250 250 250 250 250 251 251 251 251 251 252 252 252 252 252 253 253 253 253 253 253 254 254 254 254 254 254 255 255 255 255 256 256
238 239 239 239 240 240 240 240 240 240 240 241 241 241 241 241 242 242 242 243 243 243 244 244 244 245 245 246 246 247 247 247 247 248 248 248 249 249 249 249 249 249 249 249 249 249 249 249 249 249 249 249 249 249 249 250 250 250 250 250 251 251 251 251 252 252 252 252 252 253 253 253 253 253 253 254 254 254 254 254 254 255 255 255 255 256
238 238 239 239 239 239 239 240 240 240 240 240 241 241 241 241 242 242 242 242 243 243 243 244 244 244 245 245 246 246 246 247 247 247 248 248 248 248 249 249 249 249 249 248 248 248 249 249 249 249 249 249 249 249 249 249 249 249 250 250 250 250 251 251 251 251 252 252 252 252 253 253 253 253 253 253 254 254 254 254 254 255 255 255 255 255
239 239 239 239 239 239 239 240 240 240 240 240 240 241 241 241 241 242 242 242 243 243 243 243 244 244 244 245 245 245 246 246 246 247 247 248 248 248 248 248 249 249 249 248 248 248 248 249 249 249 249 249 249 249 249 249 249 249 249 250 250 250 250 251 251 251 251 252 252 252 252 253 253 253 253 253 253 254 254 254 254 254 255 255 255 255
240 240 240 240 240 240 240 240 240 240 240 240 240 240 241 241 241 241 242 242 242 242 243 243 243 244 244 244 245 245 245 246 246 246 247 247 248 248 248 248 249 249 249 249 248 248 248 249 249 249 249 249 249 249 249 249 249 249 249 250 250 250 250 251 251 251 251 252 252 252 252 252 253 253 253 253 253 253 254 254 254 254 254 254 254 254
240 240 240 240 240 240 240 240 240 240 240 240 240 240 241 241 241 241 242 242 242 242 242 243 243 243 244 244 244 245 245 245 246 246 246 247 247 248 248 248 248 249 249 249 249 249 248 249 249 249 249 249 249 249 250 250 250 250 250 250 250 250 250 251 251 251 251 252 252 252 252 252 252 252 253 253 253 253 253 253 254 254 254 254 254 254
239 239 239 239 239 239 239 240 240 240 240 240 240 240 240 241 241 241 241 241 241 242 242 243 243 243 243 244 244 244 245 245 246 246 246 247 247 248 248 248 248 249 249 249 249 249 249 249 249 249 249 249 250 250 250 250 250 250 250 250 250 251 251 251 251 251 251 251 252 252 252 252 252 252 252 252 253 253 253 253 253 253 253 253 253 253
239 239 239 239 239 239 239 239 239 239 240 240 240 240 240 240 241 241 241 241 241 242 242 242 242 243 243 244 244 244 244 245 245 245 246 246 247 247 247 248 248 248 249 249 249 249 249 249 249 249 249 249 250 250 250 250 250 250 251 251 251 251 251 251 251 251 251 251 251 251 251 252 252 252 252 252 252 252 253 253 253 253 253 253 253 253
238 238 239 238 239 239 239 239 239 239 239 239 240 240 240 240 240 240 241 241 241 241 241 242 242 242 242 243 243 244 244 244 244 245 245 246 246 247 247 247 248 248 248 249 249 249 249 249 249 249 249 250 250 250 250 250 250 251 251 251 251 251 251 251 251 251 251 251 251 251 251 251 251 252 252 252 252 252 252 252 252 252 252 252 252 252
238 238 238 238 238 238 238 238 239 239 239 239 239 239 239 239 240 240 240 240 240 240 241 241 241 241 241 242 242 243 243 243 244 244 244 245 246 246 246 247 247 248 248 248 249 249 249 249 249 249 249 250 250 250 250 250 251 251 251 251 251 251 251 251 251 251 251 251 251 251 251 251 251 252 252 252 252 252 252 252 252 252 252 252 252 252
237 237 237 237 238 238 238 238 238 238 238 238 238 239 239 239 239 239 239 239 239 240 240 240 240 241 241 241 242 242 243 243 243 244 244 245 246 246 246 247 247 248 248 248 249 249 250 250 249 249 249 250 250 250 250 250 251 251 251 251 251 251 251 251 251 251 251 251 251 251 251 251 251 252 252 252 252 252 252 251 251 251 251 251 251 252
235 236 236 236 236 237 237 237 237 237 237 237 237 238 238 238 238 238 238 239 239 239 239 240 240 240 240 241 241 242 242 243 243 244 244 245 245 246 246 247 247 247 248 248 248 249 249 250 250 250 250 250 250 250 250 250 250 251 251 251 251 251 251 251 251 251 251 251 251 251 251 251 251 252 252 252 251 251 251 251 251 251 251 251 251 251
234 234 235 235 235 235 235 236 236 236 236 236 236 237 237 237 237 237 238 238 238 238 239 239 240 240 240 241 241 241 242 242 243 243 244 244 245 245 246 246 247 247 247 248 248 249 249 249 250 250 250 250 250 250 250 250 250 250 250 250 251 251 251 250 250 250 250 251 251 251 251 251 251 251 251 251 251 251 250 250 250 250 250 250 250 251
232 233 233 233 234 234 234 234 234 235 235 235 235 235 236 236 236 237 237 237 238 238 238 239 239 239 240 240 241 241 241 242 242 242 243 244 244 245 245 246 246 247 247 248 249 249 249 250 250 250 250 250 250 250 250 250 250 250 250 250 250 250 250 250 250 250 250 250 251 251 251 251 251 250 250 250 250 250 250 250 250 250 250 250 250 250
231 231 232 232 232 233 233 233 233 234 234 234 234 235 235 235 236 236 236 237 237 237 238 238 238 239 239 240 240 240 241 241 242 242 243 243 244 245 245 246 247 247 248 249 249 249 250 250 250 250 250 250 250 249 249 249 249 249 249 249 249 249 249 249 250 250 250 250 250 250 250 250 250 249 249 249 249 249 249 249 249 249 249 249 249 249
230 230 231 231 231 232 232 232 232 233 233 233 233 234 234 234 235 235 236 236 237 237 237 238 238 238 239 239 240 240 241 241 242 242 243 244 245 246 246 247 248 248 248 249 249 249 249 249 249 249 249 249 249 249 249 248 248 248 248 248 248 249 249 249 249 249 249 250 250 249 249 249 249 249 248 248 248 248 249 249 248 248 248 248 248 249
229 230 230 230 230 231 231 231 232 232 233 233 233 233 234 234 234 235 235 236 236 237 237 237 238 238 239 239 240 241 242 242 243 244 244 245 246 246 247 247 247 247 247 247 247 247 247 248 248 248 248 248 248 248 248 248 247 247 247 247 248 248 248 248 249 249 249 249 248 248 248 248 248 248 248 248 248 248 248 248 248 248 248 248 248 248
229 229 229 230 230 230 231 231 232 232 232 233 233 233 233 234 234 234 235 236 236 237 237 238 238 239 240 240 241 242 242 243 244 244 245 245 245 245 245 245 245 245 245 245 246 246 246 247 247 247 247 247 247 247 247 247 247 247 247 247 247 247 247 247 248 248 248 247 247 247 247 247 247 247 247 247 247 247 247 247 247 247 247 247 247 247
228 229 229 230 230 230 231 231 232 232 232 233 233 233 233 234 234 234 235 236 236 237 238 238 239 240 240 241 242 242 243 243 243 243 243 243 243 243 244 244 244 244 244 244 245 245 246 246 246 246 246 246 246 246 246 246 246 246 246 246 246 246 246 246 246 246 246 246 246 246 246 246 246 245 246 246 246 246 246 246 246 246 246 246 246 246
229 229 229 230 230 230 231 231 231 232 232 232 233 233 233 234 234 235 235 236 236 237 238 239 239 240 241 241 241 242 242 242 242 242 242 242 242 242 243 243 243 243 244 244 244 244 245 245 245 245 245 245 245 245 245 245 245 245 245 245 245 245 245 245 245 245 245 245 244 244 244 244 244 244 244 245 245 245 245 245 245 245 245 245 245 245
229 229 229 230 230 230 230 231 231 232 232 232 233 233 233 234 234 235 235 236 237 237 238 239 239 240 240 240 241 241 241 241 241 241 241 241 241 242 242 242 242 243 243 243 243 243 243 244 244 244 244 244 243 244 244 244 244 244 244 244 244 244 244 244 243 243 243 243 243 243 243 243 243 243 243 243 244 244 244 244 244 244 244 244 244 244
229 229 230 230 230 230 231 231 231 231 232 232 233 233 234 234 235 235 236 236 237 237 238 238 239 239 239 240 240 240 240 240 240 241 241 241 241 241 241 241 241 242 242 242 242 242 242 242 242 242 242 242 242 242 242 242 242 242 242 242 242 242 242 242 242 242 242 242 242 241 241 242 242 242 242 242 243 243 243 243 243 243 243 243 243 242
229 230 230 230 230 231 231 231 231 231 232 232 233 233 234 235 235 235 236 236 237 237 238 238 238 238 239 239 239 239 239 239 240 240 240 240 240 240 240 240 240 241 241 241 241 241 241 241 241 241 241 241 241 241 241 241 241 241 241 241 241 241 241 241 240 240 240 240 240 240 240 240 241 241 241 241 241 241 241 241 241 241 241 241 241 241
230 230 230 230 230 230 231 231 231 232 232 233 233 234 234 235 235 235 236 236 236 237 237 237 237 238 238 238 238 238 238 238 239 239 239 239 239 239 239 239 240 240 240 240 240 240 240 240 240 240 240 240 240 240 240 240 240 240 240 240 240 239 239 239 239 239 239 239 239 239 239 239 239 240 240 240 240 240 240 240 240 240 240 240 240 240
230 230 230 230 230 230 231 231 232 232 232 233 233 234 234 235 235 235 235 236 236 236 236 236 236 237 237 237 237 237 237 237 238 238 238 238 238 238 238 238 239 239 239 239 239 239 239 239 239 239 239 239 239 239 239 239 239 239 239 238 238 238 238 237 237 237 237 237 237 238 238 238 238 238 238 238 239 239 239 239 238 238 238 238 239 239
229 229 230 230 230 231 231 231 232 232 232 233 233 234 234 235 235 235 235 235 235 235 235 236 236 236 236 236 236 236 236 236 236 237 237 237 237 237 238 238 238 238 238 238 238 238 238 238 238 238 238 238 238 238 238 238 237 237 237 237 237 236 236 236 236 236 236 236 236 236 236 237 237 237 237 237 237 237 237 237 237 237 237 237 237 238
229 229 230 230 230 230 231 231 232 232 232 233 233 234 234 234 234 235 234 235 235 235 235 235 235 235 235 235 235 235 235 235 235 235 236 236 236 236 236 237 237 237 237 237 237 237 237 237 237 237 237 237 237 237 237 236 236 236 236 235 235 235 235 235 235 235 234 235 235 235 235 235 235 236 236 236 236 236 236 236 236 236 236 236 237 237
230 230 230 230 230 230 231 231 231 232 232 233 233 234 234 234 234 234 234 234 234 234 234 234 234 234 234 234 234 234 234 234 234 234 234 235 235 235 235 235 236 236 236 236 236 236 236 236 236 236 236 236 235 235 235 235 235 235 234 234 234 234 234 233 233 233 233 233 234 234 234 234 234 235 235 235 235 235 235 235 235 235 235 235 236 236
230 230 230 230 230 230 231 231 231 232 232 233 233 233 234 233 234 233 233 233 233 233 233 233 233 234 233 233 233 233 233 233 233 233 233 234 234 234 234 234 235 235 235 235 235 235 235 235 235 235 235 234 234 234 234 234 234 233 233 233 233 233 233 233 233 233 233 233 233 233 233 233 233 234 234 234 234 234 234 234 234 234 235 235 235 235
230 230 230 230 230 230 231 231 231 232 232 233 233 233 233 233 233 233 233 233 233 233 233 233 233 233 233 233 232 232 232 232 232 232 232 232 233 233 233 233 233 234 234 234 234 234 234 234 233 233 233 233 233 233 233 233 233 232 232 232 232 232 232 232 232 232 232 232 232 232 232 233 233 233 233 233 233 233 233 233 233 233 234 234 234 234
Height
10386 10389 10392 10396 10400 10402 10404 10407 10411 10417 10421 10426 10430 10435 10439 10443 10447 10451 10454 10459 10463 10467 10471 10474 10478 10481 10484 10487 10489 10491 10494 10496 10499 10501 10503 10504 10506 10508 10510 10512 10515 10517 10519 10522 10524 10526 10528 10530 10532 10534 10536 10538 10540 10542 10544 10546 10547 10549 10551 10552 10554 10556 10558 10560 10562 10564 10565 10567 10569 10571 10573 10575 10577 10579 10581 10582 10584 10586 10587 10589 10591 10592 10594 10595 10596 10598
10375 10378 10382 10386 10390 10392 10394 10396 10402 10407 10411 10414 10419 10424 10428 10432 10437 10441 10444 10449 10453 10457 10461 10465 10469 10472 10476 10478 10481 10483 10486 10488 10491 10492 10495 10497 10499 10501 10503 10505 10507 10509 10512 10514 10516 10518 10521 10522 10524 10526 10529 10531 10532 10534 10536 10538 10540 10542 10544 10546 10547 10549 10551 10552 10554 10556 10558 10560 10562 10564 10566 10568 10570 10572 10574 10576 10577 10579 10581 10582 10583 10585 10586 10587 10589 10591
10365 10368 10372 10376 10379 10381 10384 10387 10392 10397 10401 10404 10408 10413 10418 10422 10426 10430 10434 10439 10443 10447 10451 10456 10460 10463 10466 10469 10471 10474 10477 10479 10482 10484 10487 10489 10491 10494 10496 10497 10499 10502 10504 10506 10509 10511 10512 10515 10517 10519 10521 10522 10524 10527 10529 10531 10532 10534 10536 10538 10540 10541 10543 10545 10547 10549 10551 10552 10554 10557 10559 10561 10562 10564 10566 10568 10570 10571 10573 10574 10576 10577 10579 10580 10582 10584
10356 10359 10362 10364 10367 10371 10374 10377 10382 10386 10391 10394 10398 10402 10407 10412 10416 10419 10424 10429 10433 10437 10442 10446 10450 10454 10457 10460 10462 10466 10468 10471 10473 10476 10479 10481 10484 10486 10487 10490 10492 10494 10496 10498 10501 10502 10505 10507 10509 10511 10512 10514 10517 10519 10521 10522 10525 10527 10529 10531 10532 10534 10536 10537 10539 10541 10543 10545 10547 10549 10551 10553 10556 10557 10559 10561 10562 10564 10566 10567 10569 10570 10571 10572 10574 10576
10346 10349 10351 10353 10357 10362 10364 10367 10371 10376 10380 10384 10387 10392 10396 10401 10404 10409 10414 10419 10424 10428 10432 10436 10440 10444 10447 10450 10453 10456 10459 10462 10465 10467 10471 10473 10475 10477 10480 10482 10484 10486 10488 10490 10492 10494 10496 10498 10500 10502 10504 10506 10508 10511 10512 10515 10517 10519 10521 10522 10524 10526 10528 10530 10532 10534 10536 10538 10540 10542 10544 10546 10548 10550 10552 10553 10555 10557 10559 10560 10561 10562 10564 10566 10567 10569
10335 10339 10341 10345 10349 10352 10354 10357 10362 10366 10370 10373 10377 10381 10385 10389 10394 10398 10404 10409 10413 10417 10421 10426 10430 10434 10437 10440 10443 10446 10449 10453 10456 10459 10462 10464 10467 10469 10471 10474 10476 10477 10479 10482 10484 10486 10487 10490 10492 10494 10496 10498 10500 10502 10505 10507 10509 10511 10512 10514 10516 10518 10520 10522 10524 10526 10528 10531 10532 10534 10537 10539 10541 10542 10544 10546 10547 10549 10551 10552 10554 10555 10556 10558 10560 10561
10323 10329 10332 10337 10341 10342 10344 10348 10352 10357 10360 10363 10366 10370 10374 10379 10383 10388 10393 10397 10401 10406 10411 10416 10420 10424 10427 10430 10434 10437 10441 10444 10447 10450 10452 10455 10457 10460 10462 10464 10467 10469 10471 10473 10475 10477 10479 10481 10483 10486 10487 10490 10492 10494 10496 10499 10501 10503 10505 10507 10509 10511 10512 10514 10516 10519 10521 10523 10525 10527 10529 10531 10533 10535 10537 10538 10540 10541 10543 10544 10546 10547 10549 10551 10552 10554
10313 10318 10323 10327 10330 10333 10336 10340 10344 10347 10350 10354 10357 10361 10364 10369 10373 10377 10382 10386 10391 10396 10401 10405 10409 10412 10416 10420 10424 10427 10431 10434 10437 10441 10444 10446 10449 10451 10453 10456 10458 10460 10462 10464 10466 10468 10471 10472 10475 10477 10479 10481 10484 10486 10488 10490 10492 10494 10497 10499 10501 10502 10504 10506 10509 10511 10513 10515 10517 10519 10522 10524 10526 10527 10529 10531 10532 10534 10535 10537 10538 10540 10541 10543 10545 10546
10303 10307 10312 10316 10319 10323 10327 10331 10334 10337 10341 10345 10348 10351 10355 10359 10363 10367 10372 10376 10381 10386 10389 10394 10397 10401 10406 10409 10414 10418 10422 10426 10429 10431 10434 10437 10439 10442 10444 10446 10449 10451 10453 10455 10457 10459 10462 10464 10466 10469 10471 10473 10475 10477 10479 10482 10484 10486 10488 10491 10492 10494 10496 10498 10501 10502 10505 10507 10509 10512 10514 10516 10518 10519 10521 10522 10524 10526 10527 10529 10531 10532 10534 10536 10537 10539
10293 10297 10301 10305 10309 10314 10318 10321 10325 10329 10333 10337 10340 10342 10346 10349 10354 10358 10362 10367 10371 10374 10379 10383 10387 10391 10394 10399 10404 10409 10412 10416 10418 10421 10424 10427 10430 10432 10434 10436 10439 10441 10444 10446 10449 10451 10453 10456 10458 10460 10462 10464 10466 10469 10471 10473 10476 10477 10480 10482 10484 10486 10488 10490 10492 10494 10497 10499 10502 10504 10506 10508 10510 10511 10513 10514 10516 10517 10519 10521 10522 10524 10526 10528 10530 10532
10283 10287 10291 10295 10299 10304 10309 10312 10314 10318 10323 10328 10331 10334 10337 10341 10346 10349 10354 10357 10361 10364 10369 10374 10377 10380 10384 10389 10394 10399 10402 10405 10408 10411 10414 10417 10420 10422 10424 10427 10429 10432 10434 10437 10439 10442 10444 10447 10449 10452 10454 10456 10457 10459 10462 10464 10466 10469 10471 10473 10475 10477 10479 10482 10484 10486 10489 10491 10494 10496 10498 10500 10502 10503 10505 10506 10507 10509 10511 10512 10514 10516 10519 10521 10522 10524
10274 10277 10281 10286 10290 10295 10299 10302 10305 10308 10314 10318 10322 10324 10327 10331 10336 10340 10344 10348 10351 10354 10359 10363 10366 10370 10374 10379 10383 10387 10391 10395 10398 10401 10404 10407 10410 10412 10415 10417 10419 10422 10424 10427 10430 10432 10436 10438 10441 10442 10445 10447 10449 10451 10452 10455 10457 10460 10462 10464 10466 10468 10471 10473 10475 10477 10480 10482 10485 10487 10489 10491 10493 10495 10496 10498 10499 10501 10503 10504 10507 10509 10511 10512 10514 10516
10264 10267 10271 10276 10281 10285 10289 10292 10296 10299 10304 10308 10311 10314 10316 10321 10326 10331 10336 10339 10342 10346 10349 10352 10356 10361 10365 10369 10373 10377 10381 10385 10387 10391 10394 10397 10401 10403 10405 10407 10409 10411 10414 10417 10421 10424 10426 10429 10431 10433 10436 10437 10439 10441 10443 10446 10448 10451 10452 10455 10457 10459 10462 10464 10466 10469 10471 10474 10476 10478 10481 10482 10484 10486 10488 10489 10491 10493 10494 10496 10498 10500 10502 10504 10506 10507
10255 10259 10262 10266 10271 10274 10279 10282 10286 10290 10293 10296 10300 10303 10307 10311 10317 10324 10328 10330 10332 10335 10339 10343 10347 10351 10354 10359 10363 10367 10371 10374 10377 10381 10384 10388 10391 10392 10395 10397 10399 10401 10404 10408 10411 10414 10416 10419 10422 10424 10426 10427 10429 10432 10434 10436 10439 10441 10443 10445 10447 10450 10452 10455 10457 10460 10462 10464 10467 10469 10471 10473 10476 10477 10479 10481 10482 10484 10486 10488 10490 10492 10494 10496 10497 10499
10246 10249 10253 10256 10260 10263 10267 10272 10277 10280 10283 10286 10290 10295 10299 10304 10309 10314 10317 10319 10321 10324 10329 10335 10339 10341 10344 10349 10354 10358 10362 10365 10367 10371 10374 10377 10380 10382 10386 10388 10389 10391 10394 10398 10402 10404 10406 10409 10412 10414 10415 10417 10420 10422 10424 10426 10429 10431 10433 10436 10438 10441 10443 10446 10448 10450 10452 10455 10457 10459 10462 10464 10467 10469 10471 10472 10474 10476 10477 10479 10481 10483 10485 10487 10489 10491
10236 10239 10243 10246 10249 10252 10257 10262 10266 10270 10274 10277 10282 10287 10292 10296 10299 10302 10305 10308 10311 10315 10320 10326 10329 10331 10334 10338 10343 10348 10352 10356 10358 10361 10364 10367 10370 10373 10377 10379 10379 10380 10383 10388 10391 10394 10396 10399 10402 10404 10405 10407 10410 10412 10414 10417 10419 10421 10423 10426 10428 10431 10433 10436 10438 10440 10442 10445 10447 10450 10452 10455 10457 10459 10461 10463 10465 10467 10469 10471 10472 10474 10476 10478 10480 10482
10225 10229 10233 10236 10239 10242 10247 10252 10256 10261 10264 10269 10274 10279 10282 10286 10288 10292 10296 10299 10302 10306 10311 10314 10317 10320 10322 10327 10332 10339 10343 10346 10347 10349 10353 10357 10360 10362 10366 10368 10369 10370 10372 10377 10381 10383 10386 10389 10392 10394 10395 10397 10400 10402 10404 10407 10409 10411 10414 10416 10418 10421 10423 10426 10427 10430 10432 10435 10438 10441 10443 10446 10447 10450 10452 10454 10456 10458 10460 10462 10464 10466 10467 10469 10471 10472
10214 10217 10221 10224 10228 10232 10237 10242 10246 10251 10255 10260 10264 10269 10272 10275 10279 10282 10287 10290 10293 10296 10300 10303 10306 10309 10312 10316 10322 10327 10332 10335 10337 10339 10341 10346 10348 10351 10354 10358 10360 10361 10361 10365 10369 10372 10376 10379 10381 10383 10385 10387 10389 10392 10394 10396 10399 10401 10404 10406 10408 10410 10412 10415 10417 10420 10422 10426 10428 10431 10433 10436 10438 10440 10442 10444 10447 10449 10451 10452 10454 10456 10458 10460 10462 10464
10202 10206 10209 10214 10218 10222 10227 10232 10236 10241 10245 10249 10254 10258 10261 10265 10269 10272 10277 10279 10282 10286 10289 10293 10296 10299 10302 10306 10311 10316 10321 10325 10327 10327 10329 10333 10336 10339 10343 10348 10351 10351 10351 10354 10358 10362 10365 10368 10371 10372 10374 10376 10379 10381 10384 10386 10389 10391 10393 10396 10397 10400 10402 10405 10407 10410 10413 10416 10418 10421 10423 10426 10427 10430 10432 10435 10437 10439 10441 10443 10446 10447 10449 10451 10453 10454
10190 10194 10199 10203 10207 10212 10217 10221 10226 10230 10234 10239 10243 10247 10251 10254 10258 10262 10266 10269 10272 10276 10279 10283 10286 10289 10292 10296 10300 10304 10309 10314 10316 10317 10318 10321 10324 10327 10332 10337 10341 10341 10340 10342 10347 10351 10355 10358 10361 10362 10364 10366 10369 10371 10374 10376 10379 10381 10383 10385 10387 10389 10392 10395 10397 10401 10403 10406 10408 10411 10413 10416 10417 10420 10422 10425 10427 10429 10432 10434 10436 10438 10440 10442 10444 10446
10181 10184 10189 10192 10197 10202 10206 10210 10214 10219 10224 10228 10233 10237 10241 10244 10247 10251 10255 10259 10262 10266 10270 10274 10277 10279 10282 10286 10289 10293 10297 10303 10306 10307 10307 10310 10314 10317 10321 10326 10329 10330 10329 10331 10336 10340 10344 10347 10349 10351 10353 10356 10358 10361 10364 10367 10369 10371 10372 10375 10377 10379 10382 10385 10388 10391 10393 10396 10398 10401 10403 10405 10407 10410 10412 10414 10417 10419 10422 10424 10427 10429 10431 10433 10435 10436
10173 10177 10180 10184 10189 10192 10196 10200 10204 10209 10214 10218 10222 10226 10229 10232 10236 10240 10244 10248 10252 10256 10260 10264 10267 10269 10272 10276 10279 10281 10284 10291 10295 10297 10297 10301 10305 10309 10311 10314 10317 10318 10318 10320 10324 10329 10333 10336 10337 10339 10342 10345 10348 10351 10354 10356 10359 10361 10362 10365 10367 10370 10373 10376 10378 10381 10383 10386 10388 10390 10392 10395 10397 10399 10402 10404 10407 10410 10412 10415 10417 10420 10422 10424 10426 10427
10165 10169 10172 10177 10181 10184 10187 10191 10196 10200 10204 10207 10211 10214 10217 10221 10225 10229 10233 10237 10241 10245 10249 10252 10256 10260 10264 10268 10270 10271 10273 10278 10282 10285 10287 10291 10293 10295 10298 10303 10306 10307 10307 10307 10311 10317 10322 10325 10326 10329 10331 10334 10337 10341 10343 10346 10348 10350 10352 10355 10358 10361 10363 10366 10368 10371 10373 10376 10378 10380 10382 10385 10387 10389 10392 10394 10397 10400 10403 10406 10408 10411 10412 10415 10416 10418
10157 10161 10165 10169 10172 10176 10179 10183 10187 10190 10194 10197 10200 10203 10207 10211 10216 10219 10223 10227 10231 10235 10239 10242 10247 10251 10254 10257 10258 10260 10262 10266 10271 10274 10277 10280 10281 10281 10284 10289 10294 10296 10295 10296 10300 10306 10312 10314 10316 10318 10321 10324 10326 10329 10332 10334 10337 10340 10342 10346 10349 10351 10354 10356 10359 10361 10363 10366 10368 10371 10372 10375 10377 10379 10382 10385 10388 10391 10394 10396 10399 10401 10404 10406 10407 10408
10151 10154 10158 10161 10164 10167 10171 10174 10177 10181 10184 10187 10191 10194 10197 10202 10206 10209 10213 10217 10221 10225 10229 10232 10236 10239 10242 10244 10246 10249 10252 10256 10259 10264 10267 10269 10269 10270 10272 10276 10280 10283 10284 10286 10291 10297 10302 10304 10305 10307 10310 10312 10315 10317 10321 10324 10327 10330 10333 10336 10339 10342 10345 10347 10349 10352 10354 10356 10359 10361 10363 10365 10367 10370 10373 10376 10379 10382 10385 10387 10390 10392 10394 10396 10397 10399
10144 10147 10150 10153 10156 10159 10162 10166 10168 10171 10175 10178 10181 10184 10188 10192 10196 10199 10203 10207 10211 10214 10218 10221 10224 10227 10229 10232 10237 10240 10242 10245 10249 10253 10256 10257 10258 10259 10261 10264 10267 10271 10272 10276 10281 10287 10292 10293 10294 10296 10299 10302 10304 10307 10310 10314 10317 10321 10324 10327 10330 10333 10336 10338 10341 10342 10345 10347 10349 10351 10354 10356 10358 10361 10364 10367 10370 10373 10376 10378 10381 10383 10385 10386 10387 10389
10136 10139 10142 10144 10148 10151 10154 10157 10160 10163 10166 10169 10172 10176 10179 10183 10187 10191 10194 10197 10201 10204 10208 10212 10214 10217 10219 10224 10228 10231 10232 10235 10239 10242 10244 10246 10248 10249 10251 10252 10256 10260 10263 10266 10270 10275 10279 10281 10283 10286 10289 10292 10294 10297 10301 10304 10307 10311 10314 10318 10321 10324 10327 10329 10331 10333 10336 10338 10340 10342 10344 10346 10348 10351 10354 10358 10361 10364 10367 10369 10372 10374 10375 10376 10378 10379
10128 10131 10134 10137 10140 10143 10146 10149 10152 10155 10158 10161 10164 10167 10171 10174 10178 10181 10184 10187 10191 10196 10200 10202 10205 10207 10211 10214 10217 10220 10222 10226 10229 10231 10233 10236 10238 10239 10240 10242 10246 10251 10254 10257 10259 10263 10268 10271 10274 10277 10280 10283 10286 10288 10291 10295 10299 10302 10306 10309 10312 10314 10317 10319 10321 10324 10326 10329 10331 10332 10334 10336 10339 10342 10346 10349 10352 10355 10358 10360 10362 10364 10366 10367 10369 10370
10121 10123 10126 10129 10133 10136 10139 10142 10144 10147 10151 10154 10156 10159 10162 10166 10169 10172 10175 10179 10184 10189 10191 10193 10196 10199 10202 10205 10207 10211 10214 10216 10218 10219 10222 10226 10228 10229 10229 10232 10237 10242 10245 10247 10250 10254 10258 10262 10264 10267 10271 10274 10277 10279 10282 10286 10290 10293 10296 10299 10302 10304 10307 10309 10311 10314 10316 10319 10321 10322 10324 10326 10329 10333 10337 10341 10344 10347 10349 10351 10353 10355 10356 10357 10359 10361
10114 10117 10120 10123 10126 10129 10132 10135 10137 10140 10143 10146 10149 10152 10155 10158 10161 10164 10167 10172 10177 10180 10181 10184 10187 10191 10193 10196 10199 10201 10204 10205 10206 10209 10213 10216 10217 10218 10220 10225 10229 10232 10236 10239 10241 10244 10248 10251 10255 10259 10262 10266 10268 10271 10274 10277 10281 10285 10287 10290 10292 10294 10297 10299 10302 10304 10307 10309 10311 10312 10315 10317 10321 10325 10329 10332 10336 10338 10340 10342 10344 10346 10347 10348 10350 10352
10107 10111 10113 10116 10119 10122 10126 10128 10131 10134 10136 10139 10142 10145 10147 10151 10154 10157 10161 10164 10167 10170 10172 10175 10179 10182 10184 10187 10190 10192 10192 10194 10197 10201 10205 10207 10207 10208 10212 10217 10221 10223 10226 10231 10233 10236 10238 10241 10246 10251 10254 10257 10259 10262 10266 10270 10274 10276 10279 10281 10282 10284 10286 10289 10292 10295 10297 10299 10301 10304 10306 10309 10314 10318 10322 10325 10327 10329 10331 10332 10334 10336 10337 10339 10341 10343
10101 10104 10107 10110 10113 10116 10119 10122 10124 10127 10130 10132 10135 10137 10141 10143 10146 10149 10152 10155 10158 10161 10164 10167 10169 10172 10176 10178 10181 10182 10183 10186 10190 10194 10197 10198 10199 10201 10205 10209 10212 10214 10218 10222 10225 10227 10229 10233 10237 10242 10246 10248 10251 10254 10259 10263 10266 10268 10269 10271 10272 10274 10277 10280 10283 10286 10288 10291 10292 10295 10298 10302 10307 10311 10314 10316 10318 10319 10321 10323 10325 10327 10329 10331 10333 10335
10096 10098 10101 10104 10107 10110 10112 10116 10118 10121 10123 10126 10128 10131 10133 10136 10139 10141 10144 10147 10150 10152 10156 10158 10161 10164 10167 10169 10172 10174 10176 10180 10183 10186 10189 10190 10192 10194 10198 10201 10204 10206 10210 10214 10217 10220 10222 10226 10229 10233 10237 10239 10242 10246 10251 10254 10257 10259 10260 10261 10263 10265 10267 10271 10274 10277 10279 10281 10284 10287 10292 10296 10300 10304 10306 10307 10308 10310 10311 10314 10316 10318 10321 10322 10325 10327
10089 10092 10095 10098 10101 10104 10106 10109 10111 10114 10117 10119 10122 10124 10127 10129 10132 10134 10137 10139 10142 10145 10148 10151 10153 10156 10159 10161 10164 10167 10169 10172 10175 10178 10181 10183 10184 10187 10190 10193 10196 10199 10202 10207 10210 10212 10216 10219 10222 10226 10229 10231 10234 10239 10242 10246 10247 10249 10251 10252 10254 10256 10259 10262 10266 10268 10271 10273 10277 10281 10285 10289 10292 10295 10296 10297 10299 10301 10302 10304 10307 10310 10312 10315 10317 10319
10084 10086 10089 10092 10095 10097 10100 10102 10105 10107 10110 10112 10115 10117 10120 10122 10125 10127 10130 10133 10136 10138 10141 10144 10146 10149 10151 10154 10157 10159 10162 10164 10167 10171 10174 10176 10177 10179 10183 10186 10189 10192 10197 10200 10203 10206 10210 10212 10215 10218 10221 10223 10227 10231 10234 10237 10239 10241 10242 10244 10246 10248 10251 10254 10257 10260 10263 10266 10270 10274 10278 10282 10284 10286 10287 10288 10290 10292 10294 10296 10299 10302 10304 10307 10309 10312
10078 10081 10084 10086 10089 10091 10094 10096 10099 10101 10104 10106 10109 10111 10114 10116 10119 10121 10124 10126 10129 10132 10134 10137 10139 10142 10145 10147 10149 10152 10154 10157 10161 10164 10166 10168 10171 10174 10177 10181 10184 10188 10192 10194 10197 10200 10203 10205 10207 10211 10213 10216 10219 10222 10226 10229 10231 10232 10234 10236 10238 10241 10244 10247 10250 10252 10256 10259 10263 10267 10271 10273 10275 10277 10278 10280 10281 10284 10286 10289 10291 10294 10297 10300 10302 10305
10073 10076 10078 10081 10083 10086 10088 10091 10092 10095 10097 10100 10102 10105 10107 10111 10113 10116 10118 10121 10123 10126 10128 10131 10133 10136 10138 10141 10142 10145 10148 10151 10154 10157 10160 10163 10166 10170 10173 10176 10179 10183 10186 10187 10190 10192 10195 10197 10200 10203 10206 10209 10211 10214 10217 10220 10222 10224 10226 10228 10231 10234 10237 10240 10243 10246 10249 10252 10256 10259 10262 10264 10266 10268 10269 10271 10274 10276 10278 10281 10284 10287 10290 10293 10296 10298
10068 10071 10073 10076 10078 10080 10082 10085 10087 10089 10092 10094 10097 10099 10102 10105 10107 10110 10112 10115 10117 10120 10122 10124 10127 10129 10132 10135 10137 10140 10143 10146 10150 10153 10156 10159 10162 10166 10167 10170 10173 10176 10179 10180 10182 10184 10187 10190 10192 10196 10199 10201 10204 10207 10210 10212 10214 10216 10219 10221 10224 10227 10230 10233 10236 10239 10242 10246 10249 10251 10254 10256 10258 10260 10262 10264 10266 10268 10271 10274 10277 10280 10283 10286 10289 10291
10063 10066 10068 10071 10072 10075 10077 10079 10082 10084 10086 10089 10092 10094 10097 10099 10102 10104 10107 10109 10112 10114 10117 10119 10122 10124 10127 10130 10132 10136 10139 10142 10145 10148 10151 10154 10157 10159 10161 10163 10166 10168 10171 10172 10175 10177 10181 10183 10186 10189 10192 10195 10198 10201 10202 10205 10207 10209 10212 10215 10218 10221 10224 10227 10230 10233 10236 10239 10241 10244 10246 10248 10250 10252 10254 10256 10258 10261 10264 10267 10270 10274 10277 10280 10282 10285
10058 10061 10063 10066 10067 10070 10072 10074 10077 10079 10081 10084 10086 10089 10092 10094 10097 10099 10101 10104 10107 10109 10112 10114 10117 10120 10123 10126 10129 10132 10134 10137 10140 10143 10146 10148 10150 10152 10154 10156 10159 10161 10164 10167 10169 10172 10174 10177 10180 10182 10186 10189 10191 10193 10196 10198 10200 10203 10206 10209 10212 10214 10217 10221 10223 10226 10229 10232 10234 10236 10239 10241 10242 10244 10246 10249 10251 10254 10257 10261 10264 10267 10271 10274 10276 10279
10053 10056 10058 10061 10062 10065 10067 10069 10072 10074 10076 10079 10081 10084 10086 10089 10091 10094 10097 10099 10102 10104 10107 10110 10112 10116 10119 10121 10124 10127 10129 10132 10134 10137 10139 10142 10144 10146 10149 10151 10152 10156 10158 10161 10163 10166 10169 10171 10174 10177 10179 10182 10184 10187 10189 10192 10194 10197 10200 10202 10205 10207 10211 10214 10217 10219 10222 10225 10227 10229 10231 10233 10235 10237 10240 10242 10245 10248 10251 10255 10259 10262 10265 10267 10270 10272
10049 10051 10053 10056 10058 10060 10062 10064 10067 10069 10071 10074 10076 10079 10081 10084 10086 10089 10092 10095 10097 10100 10102 10106 10108 10111 10114 10116 10119 10122 10124 10126 10129 10131 10134 10136 10138 10141 10143 10145 10147 10150 10152 10156 10158 10161 10163 10166 10169 10171 10173 10176 10178 10181 10183 10186 10189 10191 10194 10197 10199 10203 10206 10209 10211 10213 10216 10218 10220 10222 10224 10226 10229 10231 10234 10236 10239 10242 10246 10250 10253 10256 10259 10262 10264 10266
10044 10046 10049 10051 10053 10055 10057 10060 10062 10064 10067 10069 10071 10074 10076 10079 10082 10084 10087 10090 10092 10096 10098 10101 10104 10106 10109 10111 10114 10116 10119 10121 10124 10126 10128 10131 10133 10136 10137 10140 10142 10145 10147 10150 10152 10155 10157 10161 10163 10165 10167 10170 10172 10175 10177 10181 10183 10186 10189 10192 10194 10197 10200 10202 10204 10207 10210 10212 10214 10216 10218 10220 10222 10225 10228 10231 10234 10237 10241 10244 10247 10251 10253 10256 10258 10261
10039 10041 10044 10046 10048 10051 10053 10055 10057 10059 10062 10064 10067 10069 10072 10074 10077 10080 10082 10086 10088 10091 10094 10096 10099 10102 10104 10106 10109 10112 10114 10116 10119 10121 10124 10126 10128 10131 10132 10135 10137 10140 10142 10145 10147 10149 10152 10155 10157 10159 10162 10164 10167 10169 10172 10176 10178 10181 10184 10187 10189 10192 10194 10196 10199 10201 10204 10206 10208 10210 10212 10215 10217 10221 10223 10226 10230 10233 10236 10239 10242 10244 10247 10250 10252 10255
10035 10037 10039 10042 10044 10046 10048 10050 10052 10055 10057 10060 10062 10064 10067 10070 10072 10076 10078 10081 10084 10086 10089 10091 10094 10097 10099 10101 10104 10107 10109 10112 10114 10116 10119 10121 10124 10126 10128 10130 10132 10135 10137 10140 10142 10144 10147 10149 10152 10154 10157 10159 10162 10165 10167 10171 10174 10176 10179 10182 10184 10186 10189 10191 10194 10196 10198 10201 10202 10205 10207 10210 10213 10216 10219 10222 10225 10227 10231 10234 10237 10239 10242 10244 10247 10250
10030 10032 10035 10037 10039 10041 10043 10046 10048 10051 10053 10056 10057 10060 10062 10066 10068 10071 10074 10076 10079 10082 10084 10087 10089 10092 10094 10097 10099 10102 10105 10107 10109 10112 10114 10116 10119 10121 10123 10126 10127 10130 10132 10135 10137 10139 10142 10144 10147 10149 10152 10155 10157 10160 10163 10166 10169 10172 10174 10177 10179 10181 10184 10186 10189 10191 10192 10195 10197 10200 10202 10206 10209 10211 10214 10217 10220 10223 10226 10229 10231 10234 10237 10239 10242 10245
10025 10027 10030 10032 10034 10037 10039 10041 10044 10046 10049 10051 10053 10056 10058 10061 10064 10066 10069 10072 10074 10077 10079 10082 10085 10087 10089 10092 10095 10097 10100 10102 10105 10107 10109 10112 10114 10116 10119 10121 10123 10126 10127 10130 10132 10135 10137 10140 10142 10145 10147 10150 10153 10156 10159 10162 10164 10167 10169 10172 10174 10176 10179 10181 10183 10186 10188 10191 10193 10196 10198 10201 10204 10207 10209 10212 10216 10218 10221 10224 10226 10229 10232 10235 10237 10240
10021 10023 10026 10027 10030 10032 10034 10037 10039 10042 10044 10046 10049 10051 10054 10057 10059 10062 10064 10067 10070 10072 10075 10077 10080 10082 10085 10087 10090 10092 10096 10098 10101 10102 10105 10107 10109 10112 10114 10116 10119 10121 10123 10126 10128 10131 10133 10136 10138 10141 10143 10146 10149 10152 10154 10157 10160 10162 10164 10167 10169 10172 10174 10176 10179 10181 10184 10187 10189 10192 10194 10197 10200 10202 10205 10208 10211 10214 10216 10219 10222 10224 10227 10231 10233 10236
10016 10018 10021 10023 10026 10027 10030 10032 10034 10037 10039 10042 10044 10047 10049 10052 10055 10057 10060 10062 10065 10067 10070 10072 10075 10077 10080 10083 10086 10088 10091 10094 10096 10098 10101 10103 10106 10107 10110 10112 10114 10117 10119 10121 10124 10126 10129 10131 10134 10137 10139 10142 10145 10147 10150 10152 10155 10157 10160 10162 10165 10167 10170 10172 10175 10177 10180 10182 10185 10187 10191 10193 10196 10198 10201 10204 10206 10209 10212 10214 10217 10221 10223 10226 10229 10231
10011 10013 10016 10018 10021 10023 10025 10027 10030 10032 10035 10037 10040 10042 10045 10047 10051 10053 10056 10058 10061 10063 10066 10067 10071 10073 10076 10078 10081 10084 10086 10089 10091 10094 10096 10099 10101 10104 10106 10108 10111 10112 10115 10117 10119 10122 10125 10127 10130 10132 10135 10138 10141 10143 10146 10148 10151 10153 10156 10158 10161 10163 10166 10168 10171 10173 10176 10179 10181 10184 10187 10189 10192 10194 10197 10199 10202 10204 10207 10211 10213 10216 10219 10222 10224 10227
10006 10009 10011 10014 10016 10018 10021 10023 10026 10028 10031 10033 10036 10038 10041 10043 10046 10048 10051 10054 10056 10058 10061 10063 10066 10069 10071 10074 10077 10079 10082 10084 10087 10089 10092 10094 10097 10099 10102 10104 10106 10109 10111 10113 10116 10118 10121 10124 10126 10129 10131 10134 10136 10139 10141 10144 10146 10149 10152 10154 10156 10159 10162 10164 10167 10169 10172 10175 10177 10180 10182 10185 10187 10190 10192 10194 10197 10200 10202 10206 10209 10212 10214 10217 10220 10222